Date String (YYYY-MM-DD hh:mm:ss) UTC,Instrument flags,Ambient pressure (hPa),Sample flow (lpm),Bypass flow (lpm),Sample temperature (°C),Ambient temperature (°C),ASC tube jacket temperature (°C),LED temperature (°C),Box temperature (°C),Sample RH (%),Span deviation,Mass concentration (μg/m³),Mass concentration (μg/m³),Mass concentration (μg/m³)
DateTimeUTC,F1_M11,P_M11,Q1_M11,Q2_M11,T1_M11,T2_M11,T3_M11,T4_M11,T5_M11,U1_M11,ZSPAN_M11,X0_M11,X2_M11,X1_M11
2023-04-13 21:00:00,,0814.0,5.01,0.00,30.1,28.8,00.0,38.4,31.7,08.9,0000.0,0009.21,0003.46,0002.48
2023-04-13 21:01:00,,0814.0,5.01,0.00,30.1,28.9,00.0,38.4,31.7,09.0,0000.0,0009.33,0003.48,0002.48
2023-04-13 21:02:00,,0814.0,5.00,0.00,30.1,28.9,00.0,38.4,31.7,09.0,0000.0,0009.48,0003.46,0002.48
2023-04-13 21:03:00,,0813.9,4.99,0.00,30.1,28.9,00.0,38.4,31.7,09.1,0000.0,0009.78,0003.47,0002.49
2023-04-13 21:04:00,,0813.9,5.00,0.00,30.1,28.9,00.0,38.4,31.7,09.0,0000.0,0010.04,0003.48,0002.48
2023-04-13 21:05:00,,0813.9,5.00,0.00,30.2,28.9,00.0,38.4,31.7,09.0,0000.0,0010.69,0003.47,0002.49
2023-04-13 21:06:00,,0813.9,5.00,0.00,30.2,28.9,00.0,38.5,31.7,09.1,0000.0,0010.62,0003.43,0002.48
2023-04-13 21:07:00,,0813.9,5.00,0.00,30.2,28.9,00.0,38.5,31.7,09.2,0000.0,0010.67,0003.41,0002.47
2023-04-13 21:08:00,,0813.9,5.00,0.00,30.2,28.9,00.0,38.5,31.8,09.4,0000.0,0010.93,0003.44,0002.48
2023-04-13 21:09:00,,0813.9,5.00,0.00,30.2,29.0,00.0,38.5,31.8,09.1,0000.0,0011.23,0003.43,0002.48
2023-04-13 21:10:00,,0813.9,5.00,0.00,30.2,29.0,00.0,38.5,31.8,09.2,0000.0,0011.09,0003.44,0002.48
2023-04-13 21:11:00,,0813.9,5.00,0.00,30.2,29.0,00.0,38.5,31.8,09.1,0000.0,0011.09,0003.42,0002.48
2023-04-13 21:12:00,,0813.9,4.99,0.00,30.2,29.0,00.0,38.5,31.8,09.2,0000.0,0011.17,0003.39,0002.47
2023-04-13 21:13:00,,0814.0,5.00,0.00,30.3,29.0,00.0,38.6,31.9,09.0,0000.0,0011.04,0003.37,0002.45
2023-04-13 21:14:00,,0813.9,5.00,0.00,30.3,29.1,00.0,38.6,31.9,09.0,0000.0,0010.29,0003.36,0002.44
2023-04-13 21:15:00,,0813.9,5.00,0.00,30.3,29.1,00.0,38.6,31.9,09.0,0000.0,0010.08,0003.34,0002.45
2023-04-13 21:16:00,,0813.9,5.01,0.00,30.3,29.1,00.0,38.6,31.9,08.9,0000.0,0009.56,0003.33,0002.45
2023-04-13 21:17:00,,0813.9,4.99,0.00,30.3,29.1,00.0,38.6,31.9,08.9,0000.0,0009.69,0003.33,0002.44
2023-04-13 21:18:00,,0813.9,5.00,0.00,30.3,29.1,00.0,38.6,31.9,09.0,0000.0,0010.34,0003.36,0002.44
2023-04-13 21:19:00,,0813.8,4.99,0.00,30.4,29.1,00.0,38.7,31.9,09.1,0000.0,0010.96,0003.35,0002.43
2023-04-13 21:20:00,,0813.8,4.99,0.00,30.4,29.2,00.0,38.7,31.9,09.0,0000.0,0010.93,0003.32,0002.43
2023-04-13 21:21:00,,0813.7,5.01,0.00,30.4,29.2,00.0,38.7,31.9,09.1,0000.0,0011.19,0003.33,0002.43
2023-04-13 21:22:00,,0813.7,5.00,0.00,30.4,29.2,00.0,38.7,32.0,09.1,0000.0,0010.83,0003.37,0002.44
2023-04-13 21:23:00,,0813.7,5.00,0.00,30.4,29.2,00.0,38.7,32.0,08.9,0000.0,0010.72,0003.38,0002.45
2023-04-13 21:24:00,,0813.8,4.99,0.00,30.4,29.2,00.0,38.7,32.0,08.9,0000.0,0010.75,0003.42,0002.46
2023-04-13 21:25:00,,0813.8,4.99,0.00,30.5,29.3,00.0,38.7,32.0,08.9,0000.0,0011.08,0003.44,0002.46
2023-04-13 21:26:00,,0813.8,5.00,0.00,30.5,29.3,00.0,38.8,32.0,08.9,0000.0,0010.92,0003.43,0002.45
2023-04-13 21:27:00,,0813.8,5.00,0.00,30.5,29.3,00.0,38.8,32.0,08.8,0000.0,0010.76,0003.40,0002.45
2023-04-13 21:28:00,,0813.9,5.00,0.00,30.5,29.3,00.0,38.8,32.1,08.8,0000.0,0010.61,0003.39,0002.44
2023-04-13 21:29:00,,0813.9,5.00,0.00,30.5,29.3,00.0,38.8,32.1,08.8,0000.0,0011.29,0003.40,0002.46
2023-04-13 21:30:00,,0813.8,5.00,0.00,30.5,29.3,00.0,38.8,32.1,08.9,0000.0,0010.17,0003.38,0002.47
2023-04-13 21:31:00,,0813.8,4.99,0.00,30.5,29.4,00.0,38.8,32.1,09.0,0000.0,0010.11,0003.38,0002.47
2023-04-13 21:32:00,,0813.9,5.01,0.00,30.5,29.4,00.0,38.9,32.1,08.9,0000.0,0010.21,0003.39,0002.45
2023-04-13 21:33:00,,0813.9,5.01,0.00,30.6,29.4,00.0,38.9,32.1,09.0,0000.0,0010.21,0003.40,0002.46
2023-04-13 21:34:00,,0813.8,5.00,0.00,30.6,29.4,00.0,38.9,32.1,09.1,0000.0,0010.71,0003.42,0002.46
2023-04-13 21:35:00,,0813.7,5.01,0.00,30.6,29.4,00.0,38.9,32.1,09.0,0000.0,0011.57,0003.46,0002.48
2023-04-13 21:36:00,,0813.7,5.00,0.00,30.6,29.4,00.0,38.9,32.2,09.0,0000.0,0011.52,0003.51,0002.50
2023-04-13 21:37:00,,0813.7,4.99,0.00,30.6,29.5,00.0,38.9,32.2,08.7,0000.0,0011.96,0003.57,0002.53
2023-04-13 21:38:00,,0813.7,4.99,0.00,30.6,29.5,00.0,38.9,32.2,08.8,0000.0,0012.58,0003.61,0002.54
2023-04-13 21:39:00,,0813.7,5.00,0.00,30.7,29.5,00.0,39.0,32.2,08.9,0000.0,0012.24,0003.64,0002.55
2023-04-13 21:40:00,,0813.6,5.00,0.00,30.7,29.5,00.0,39.0,32.2,08.9,0000.0,0011.70,0003.63,0002.55
2023-04-13 21:41:00,,0813.7,5.01,0.00,30.7,29.5,00.0,39.0,32.3,08.8,0000.0,0011.66,0003.65,0002.54
2023-04-13 21:42:00,,0813.7,4.99,0.00,30.7,29.5,00.0,39.0,32.3,08.7,0000.0,0011.46,0003.71,0002.56
2023-04-13 21:43:00,,0813.6,5.01,0.00,30.7,29.6,00.0,39.0,32.3,09.0,0000.0,0011.84,0003.73,0002.59
2023-04-13 21:44:00,,0813.5,4.99,0.00,30.8,29.6,00.0,39.0,32.3,08.8,0000.0,0012.24,0003.70,0002.58
2023-04-13 21:45:00,,0813.5,5.01,0.00,30.8,29.6,00.0,39.1,32.3,09.0,0000.0,0011.62,0003.69,0002.57
2023-04-13 21:46:00,,0813.5,5.00,0.00,30.8,29.6,00.0,39.1,32.3,08.8,0000.0,0010.88,0003.63,0002.57
2023-04-13 21:47:00,,0813.5,5.00,0.00,30.8,29.6,00.0,39.1,32.3,08.7,0000.0,0011.80,0003.56,0002.56
2023-04-13 21:48:00,,0813.5,5.01,0.00,30.8,29.6,00.0,39.1,32.3,08.1,0000.0,0011.44,0003.54,0002.54
2023-04-13 21:49:00,,0813.5,4.99,0.00,30.8,29.5,00.0,39.1,32.4,08.3,0000.0,0010.88,0003.53,0002.54
2023-04-13 21:50:00,,0813.5,5.00,0.00,30.8,27.9,00.0,39.0,32.2,07.7,0000.0,0010.72,0003.52,0002.51
2023-04-13 21:51:00,,0813.6,5.00,0.00,30.7,26.5,00.0,38.9,31.9,07.7,0000.0,0010.16,0003.48,0002.47
2023-04-13 21:52:00,,0813.5,5.02,0.00,30.6,26.4,00.0,38.9,31.8,07.7,0000.0,0009.87,0003.42,0002.44
2023-04-13 21:53:00,,0813.5,5.00,0.00,30.5,26.7,00.0,38.9,31.7,07.8,0000.0,0009.78,0003.36,0002.40
2023-04-13 21:54:00,,0813.5,4.99,0.00,30.5,27.0,00.0,38.9,31.7,08.0,0000.0,0009.14,0003.31,0002.35
2023-04-13 21:55:00,,0813.5,5.00,0.00,30.4,27.4,00.0,38.9,31.8,08.2,0000.0,0008.76,0003.29,0002.32
2023-04-13 21:56:00,,0813.5,5.01,0.00,30.4,27.7,00.0,38.9,31.8,08.1,0000.0,0008.70,0003.25,0002.29
2023-04-13 21:57:00,,0813.5,5.00,0.00,30.4,28.0,00.0,38.9,31.9,08.0,0000.0,0008.48,0003.22,0002.25
2023-04-13 21:58:00,,0813.5,4.99,0.00,30.4,28.2,00.0,38.9,31.9,08.0,0000.0,0007.06,0003.22,0002.22
2023-04-13 21:59:00,,0813.5,5.01,0.00,30.4,28.4,00.0,38.9,31.9,07.9,0000.0,0006.42,0003.17,0002.19
